SCP
0 0 0 0 0 0 0 0 0 0 0 -0 -0 0 0 0 0 0 0 0 0 0 0 0 0 0 0 -0 0 0 0 0 0 0 0 0 0 0 0 0 0 0 -0
0 0 0 0 0 0 0 0 0 0 0 0 0 0 0 0 0 0 0 0 0 0 0 0 0 0 0 0 0 0 0 0 0 0 0 0 0 0 0 0 0 0 -0
0 0 0 0 0 0 0 0 0 0 0 -0 0 0 0 0 0 0 0 0 0 0 0 0 0 0 0 0 0 0 0 0 0 0 0 0 0 0 0 0 0 0 -0
0 1 0 0 0 0 0 0 0 0 0 1 0 0 0 0 0 0 0 -0 0 0 0 0 0 0 0 0 0 0 0 0 0 0 0 0 0 0 0 0 0 0 0
0 1 0 0 0 0 0 0 0 0 0 0 0 0 0 0 0 0 0 0 0 0 0 0 0 0 0 0 0 0 0 0 0 0 0 0 0 0 0 0 0 0 0
1 1 1 1 1 0 0 0 1 1 2 0 0 0 0 0 0 0 0 0 0 0 0 0 0 0 0 0 0 0 0 0 0 0 0 0 0 0 0 0 0 0 0
1 1 0 1 1 1 3 4 2 1 1 1 0 1 0 0 0 0 0 0 0 0 0 0 0 0 0 0 0 0 0 0 0 0 0 0 0 0 0 0 0 0 0
1 2 1 2 3 3 3 3 3 2 1 1 0 1 0 0 0 0 0 0 0 0 0 0 0 0 0 0 0 0 0 0 0 0 0 0 0 0 0 0 0 0 0
1 1 1 2 2 2 1 2 1 1 1 1 0 2 0 1 0 0 0 0 0 0 0 0 0 0 0 0 0 0 0 0 0 0 0 0 0 0 0 0 0 0 0
2 3 3 3 3 3 2 2 2 2 1 0 0 0 0 0 0 1 0 0 0 0 0 0 0 0 0 0 0 0 -0 0 0 0 0 0 0 0 0 0 0 0 0
3 3 2 3 3 1 0 1 1 0 1 1 0 0 0 -0 0 0 -0 0 1 0 0 0 0 0 1 0 0 0 0 0 0 0 0 0 0 0 0 0 0 0 0
5 3 4 5 2 1 1 1 1 0 0 0 0 1 -0 0 0 -0 -0 0 -0 0 0 0 0 0 0 0 0 0 0 0 0 0 0 0 0 0 0 0 0 0 0
2 2 3 2 1 1 1 1 1 0 0 0 -0 -0 -0 0 0 0 0 0 0 0 0 0 0 1 0 1 0 0 0 0 0 0 0 0 0 0 0 0 0 0 0
0 0 0 1 1 2 2 2 2 1 0 0 0 0 0 -0 -0 0 0 0 0 0 1 1 1 1 1 1 1 0 0 0 0 0 0 0 0 0 0 0 0 0 0
0 0 0 0 0 1 1 2 2 2 1 1 1 1 1 0 1 1 1 1 1 1 1 1 3 3 3 2 1 1 1 0 0 0 0 0 0 0 0 0 0 0 0
0 0 0 0 0 0 0 1 1 1 1 1 1 1 1 1 1 1 1 1 2 1 1 1 3 4 3 2 2 1 1 0 0 0 0 0 0 0 0 0 0 0 0
0 0 0 0 0 0 0 1 1 1 0 1 1 1 0 0 1 1 2 2 2 2 2 1 1 4 3 3 2 2 1 1 1 0 0 0 0 0 0 0 0 0 0
0 0 0 0 0 0 0 0 0 0 0 0 1 1 1 1 1 1 1 1 2 2 2 1 1 2 2 2 1 1 1 1 1 0 0 0 0 0 0 0 0 0 0
0 0 0 0 0 0 0 0 0 0 0 0 0 0 0 1 1 1 1 1 1 2 2 2 2 1 2 2 1 1 1 1 1 0 0 0 0 0 0 0 0 0 0
0 0 0 0 0 0 0 0 0 0 0 0 0 0 0 0 1 1 1 1 2 2 2 2 2 2 2 2 2 1 1 1 1 0 0 0 0 0 0 0 0 0 0
0 0 0 0 0 0 0 0 0 0 0 0 0 0 0 0 0 0 0 1 2 2 2 2 2 3 2 2 3 3 1 1 1 1 1 0 0 0 0 0 0 0 0
0 0 0 0 0 0 0 0 0 0 0 0 0 0 0 0 0 0 0 0 0 1 1 2 2 2 1 2 2 2 2 1 1 1 1 1 1 0 0 0 0 0 0
0 0 0 0 0 0 0 0 0 0 0 0 0 0 0 0 0 0 0 0 0 0 0 1 1 1 1 2 1 1 1 1 1 1 1 0 1 1 0 0 0 0 0
0 0 0 0 0 0 0 0 0 0 0 0 0 0 0 0 0 0 0 0 0 0 0 0 1 1 1 2 2 2 1 1 0 1 1 1 0 1 0 1 0 0 0
0 0 0 0 0 0 0 0 0 0 0 0 0 0 0 0 0 0 0 0 0 0 0 0 0 0 0 0 0 0 0 0 0 0 0 0 1 0 0 0 0 0 0
0 0 0 0 0 0 0 0 0 0 0 0 0 0 0 0 0 0 0 0 0 0 0 1 0 0 0 0 0 0 0 0 0 0 0 1 0 0 0 1 1 0 0
Wind_Speed_500mb
21 18 17 17 13 13 12 11 9 7 8 7 7 9 10 10 11 9 14 20 13 5 7 7 6 6 13 16 18 16 16 15 15 15 15 15 15 16 16 15 14 13 14
25 22 22 20 20 18 14 14 15 13 11 12 14 13 13 11 8 10 11 17 16 10 7 5 7 7 11 14 16 16 15 12 9 9 9 10 12 13 13 13 13 13 13
30 29 24 23 24 23 22 19 18 19 16 20 20 16 13 15 14 14 12 16 17 15 9 8 7 7 6 8 10 11 10 8 6 5 5 8 10 13 13 13 14 15 16
38 30 26 25 24 26 25 22 22 22 23 20 26 15 15 16 16 17 14 13 13 14 20 8 8 5 3 5 8 8 8 7 5 5 7 8 12 15 17 15 15 16 18
31 35 25 25 28 27 28 26 24 24 26 22 29 25 20 19 19 17 19 19 19 17 13 22 15 7 3 4 6 7 7 7 7 7 8 10 11 15 18 17 16 17 19
35 36 36 32 26 26 28 25 26 25 19 26 31 18 17 18 19 20 21 23 23 23 18 22 17 11 2 5 8 8 7 7 7 6 8 11 12 15 19 20 17 18 20
40 44 34 28 30 25 28 23 21 28 25 21 31 32 23 30 32 24 23 24 26 28 24 24 21 14 22 14 13 11 10 9 7 6 6 8 10 14 19 22 19 18 20
39 41 44 45 40 39 38 35 23 26 36 31 44 27 37 38 31 22 22 23 25 27 28 27 26 25 22 28 19 16 17 15 14 11 9 10 13 16 19 22 21 19 21
41 42 44 44 46 43 41 48 52 47 56 37 39 32 29 19 19 14 27 30 25 26 29 29 31 31 33 29 29 34 32 26 22 19 16 14 16 18 21 24 22 21 21
37 36 40 40 42 36 37 35 46 54 43 34 45 50 46 47 17 12 24 22 26 35 32 27 31 36 37 34 33 36 38 31 29 27 25 23 20 20 22 25 24 23 22
42 39 37 38 36 37 41 37 54 61 58 37 26 38 42 42 39 36 43 28 32 34 29 30 30 29 37 35 34 36 44 41 37 37 35 32 28 24 24 25 25 24 23
28 31 31 35 32 26 26 27 28 46 36 50 42 46 59 45 26 33 38 42 41 35 37 32 30 28 33 36 35 38 45 42 38 39 44 41 36 31 27 26 26 24 23
18 14 6 29 24 18 22 26 33 38 61 66 65 62 66 50 38 42 39 45 46 45 52 23 24 26 32 35 35 38 39 44 42 41 45 48 44 37 33 30 27 25 21
11 10 8 27 16 10 20 31 37 37 40 50 62 66 72 69 61 52 51 49 56 53 53 42 38 32 33 37 37 40 42 49 45 45 44 47 50 44 37 33 29 26 22
12 11 7 3 19 4 9 21 27 35 37 38 43 57 65 76 77 77 71 67 60 51 61 54 39 46 36 28 33 38 46 45 49 50 49 47 51 49 43 36 32 28 24
9 12 20 24 25 15 17 19 14 23 28 36 44 47 49 53 55 53 52 50 53 57 57 40 38 32 33 35 42 40 45 51 58 59 50 50 51 52 47 41 35 31 28
8 12 7 15 20 21 25 27 28 27 22 28 32 37 45 48 48 48 49 51 53 55 57 45 36 35 37 43 41 39 41 46 44 46 49 51 52 54 51 45 39 34 31
10 4 3 9 18 19 23 24 22 14 22 23 26 30 34 31 37 43 44 49 51 53 54 51 41 34 38 34 33 50 47 38 41 40 47 47 51 54 53 48 43 36 34
18 13 13 13 10 14 21 24 20 20 21 23 24 28 28 31 32 32 37 42 45 46 48 51 52 45 37 37 37 42 38 38 36 40 45 48 46 54 56 53 49 40 38
26 26 27 30 28 22 23 23 19 21 22 21 24 25 25 24 30 37 39 36 36 37 39 41 43 43 36 35 41 38 34 35 35 30 43 47 55 53 58 60 55 49 44
15 17 18 18 21 20 28 37 33 31 25 26 26 24 24 25 33 35 34 31 41 39 35 34 35 36 37 36 39 36 26 30 29 31 35 43 43 54 60 64 64 61 52
22 19 16 20 17 15 31 34 38 41 35 25 27 28 30 31 30 28 32 28 25 30 39 47 44 43 46 41 45 36 39 41 32 28 36 41 49 44 56 67 69 68 60
25 25 21 19 21 19 29 35 39 44 42 31 30 31 33 31 28 27 29 28 23 23 25 25 27 27 30 34 40 42 41 39 39 39 29 43 39 52 46 50 56 65 68
27 26 25 23 23 23 30 36 34 29 26 31 33 35 35 36 35 42 36 31 28 24 31 31 23 23 22 25 25 27 30 32 30 35 42 40 42 44 52 57 55 54 55
33 29 26 27 27 26 32 39 34 28 23 26 27 30 33 38 42 47 48 39 37 32 31 38 41 42 45 44 41 42 34 32 36 35 32 37 41 58 66 72 52 56 62
32 32 32 30 31 31 30 35 36 29 26 27 27 29 31 33 36 39 47 53 45 39 37 40 34 36 43 39 37 43 42 38 38 40 34 37 34 38 39 37 52 54 50
Wind_Direction_500mb
220 224 221 219 236 219 237 227 225 250 251 263 274 270 268 261 269 230 280 307 302 273 311 315 316 262 233 242 242 246 259 278 282 286 296 301 304 307 307 308 307 301 297
223 220 223 227 228 228 233 241 247 247 258 262 268 262 259 248 237 228 268 300 313 283 293 300 295 281 242 231 230 244 254 267 269 281 291 304 316 318 317 306 297 291 289
219 214 230 234 234 233 231 237 253 258 255 258 250 261 258 242 237 239 239 264 294 315 314 289 290 284 244 227 228 226 227 229 245 266 295 315 326 328 317 309 302 296 297
214 242 221 235 243 242 241 237 245 257 254 251 256 255 252 241 240 245 245 232 255 281 305 299 295 274 235 206 202 200 209 224 240 259 290 312 324 331 332 316 304 303 305
219 228 230 237 243 242 246 243 243 249 260 264 266 234 239 241 243 248 245 241 238 227 263 274 281 250 224 216 204 204 212 230 244 264 287 302 314 326 335 326 308 306 309
216 228 231 234 235 241 243 240 244 242 249 261 273 287 212 240 249 245 243 244 238 238 227 263 265 227 260 248 225 212 223 240 254 274 290 301 312 328 332 328 317 313 312
217 235 230 228 236 228 222 213 238 249 246 255 261 265 271 258 243 238 249 243 238 235 228 230 230 240 270 264 242 228 232 240 250 269 292 305 308 322 331 332 322 312 312
225 236 242 230 221 218 227 230 239 262 250 234 279 298 281 251 234 241 229 237 233 230 233 231 233 225 229 268 260 253 250 248 254 267 287 299 304 308 321 327 318 310 317
229 227 228 225 226 230 245 264 262 262 254 251 281 249 272 266 232 233 251 234 226 233 226 232 236 231 232 221 258 266 258 254 256 262 272 283 296 309 313 319 316 309 319
212 217 222 230 234 232 253 261 287 263 262 246 227 230 252 261 286 285 244 249 228 224 220 224 240 242 234 238 232 243 263 260 262 263 266 269 279 296 304 312 313 310 316
210 218 220 224 244 261 261 246 255 257 249 243 202 214 249 256 265 260 267 258 237 231 231 242 224 238 258 249 239 244 248 260 263 263 263 265 269 281 295 304 307 304 311
233 208 219 236 238 244 257 269 260 247 235 228 218 221 220 244 261 250 256 265 264 262 238 214 232 240 241 255 258 234 250 262 263 263 261 260 262 269 281 293 299 295 304
162 140 179 233 225 210 247 251 265 266 247 242 248 231 250 229 247 257 265 277 277 270 277 235 237 241 252 250 247 258 253 256 262 263 263 258 259 261 269 280 292 286 292
183 183 260 352 340 280 246 244 249 257 262 254 244 247 261 247 259 253 260 265 273 274 278 276 263 252 251 243 246 246 250 258 256 261 264 260 254 255 257 267 280 277 279
163 179 155 52 306 270 278 270 264 255 250 255 254 252 253 253 264 263 265 253 251 264 261 259 282 252 248 227 246 247 253 257 261 260 259 260 252 251 249 257 269 269 266
214 210 248 251 269 270 267 249 275 290 278 270 262 261 259 260 262 264 262 260 250 249 258 252 257 256 260 245 236 262 273 272 266 263 257 256 251 246 244 249 259 264 257
63 46 297 233 258 281 272 252 241 239 276 283 287 268 263 264 265 264 262 259 256 252 253 256 259 267 256 259 259 268 265 269 268 270 258 250 247 241 240 243 253 261 254
334 272 172 274 272 282 288 294 288 267 273 278 277 282 278 281 278 273 269 266 260 254 254 252 253 253 262 267 271 280 284 265 267 259 263 254 242 238 239 240 245 256 251
279 265 276 238 260 282 272 284 295 286 278 280 281 282 282 275 282 277 279 273 268 263 257 256 255 258 254 264 270 285 293 283 275 254 254 253 246 239 237 236 239 247 247
336 321 297 261 250 243 256 280 275 286 281 282 281 285 284 279 279 278 276 274 274 270 266 260 255 255 255 264 273 278 280 278 276 267 262 261 250 243 235 234 235 241 242
327 322 310 284 272 270 269 266 267 260 273 276 278 287 287 274 285 298 297 284 269 271 271 272 267 258 254 257 271 267 272 275 268 266 254 256 264 244 234 233 235 237 240
303 296 303 294 294 282 265 273 269 264 263 272 277 279 281 293 300 299 309 306 300 282 273 265 269 266 266 262 265 274 276 277 279 257 257 246 249 264 246 236 239 240 242
300 301 295 292 292 287 276 276 277 266 267 270 270 272 276 272 292 284 289 299 308 303 296 286 274 279 282 273 272 276 277 272 269 269 279 253 254 247 253 251 245 239 243
301 299 291 286 286 282 282 290 289 288 288 279 269 268 270 274 278 274 274 280 286 281 288 290 280 269 261 268 274 279 278 279 284 277 267 263 253 247 248 247 246 254 249
301 294 288 285 280 280 285 288 293 294 295 284 280 274 270 262 263 270 270 278 282 280 272 276 276 274 266 266 270 269 266 270 273 273 277 280 279 274 262 278 231 244 255
294 296 289 280 281 282 280 282 293 296 289 282 279 279 282 280 279 275 272 274 277 277 273 262 271 277 272 263 268 268 269 264 266 271 269 279 278 288 291 277 258 263 253
Wind_Speed_850mb
21 18 17 17 13 13 12 11 9 7 8 7 7 9 10 10 11 9 14 20 13 5 7 7 6 6 13 16 18 16 16 15 15 15 15 15 15 16 16 15 14 13 14
25 22 22 20 20 18 14 14 15 13 11 12 14 13 13 11 8 10 11 17 16 10 7 5 7 7 11 14 16 16 15 12 9 9 9 10 12 13 13 13 13 13 13
30 29 24 23 24 23 22 19 18 19 16 20 20 16 13 15 14 14 12 16 17 15 9 8 7 7 6 8 10 11 10 8 6 5 5 8 10 13 13 13 14 15 16
38 30 26 25 24 26 25 22 22 22 23 20 26 15 15 16 16 17 14 13 13 14 20 8 8 5 3 5 8 8 8 7 5 5 7 8 12 15 17 15 15 16 18
31 35 25 25 28 27 28 26 24 24 26 22 29 25 20 19 19 17 19 19 19 17 13 22 15 7 3 4 6 7 7 7 7 7 8 10 11 15 18 17 16 17 19
35 36 36 32 26 26 28 25 26 25 19 26 31 18 17 18 19 20 21 23 23 23 18 22 17 11 2 5 8 8 7 7 7 6 8 11 12 15 19 20 17 18 20
40 44 34 28 30 25 28 23 21 28 25 21 31 32 23 30 32 24 23 24 26 28 24 24 21 14 22 14 13 11 10 9 7 6 6 8 10 14 19 22 19 18 20
39 41 44 45 40 39 38 35 23 26 36 31 44 27 37 38 31 22 22 23 25 27 28 27 26 25 22 28 19 16 17 15 14 11 9 10 13 16 19 22 21 19 21
41 42 44 44 46 43 41 48 52 47 56 37 39 32 29 19 19 14 27 30 25 26 29 29 31 31 33 29 29 34 32 26 22 19 16 14 16 18 21 24 22 21 21
37 36 40 40 42 36 37 35 46 54 43 34 45 50 46 47 17 12 24 22 26 35 32 27 31 36 37 34 33 36 38 31 29 27 25 23 20 20 22 25 24 23 22
42 39 37 38 36 37 41 37 54 61 58 37 26 38 42 42 39 36 43 28 32 34 29 30 30 29 37 35 34 36 44 41 37 37 35 32 28 24 24 25 25 24 23
28 31 31 35 32 26 26 27 28 46 36 50 42 46 59 45 26 33 38 42 41 35 37 32 30 28 33 36 35 38 45 42 38 39 44 41 36 31 27 26 26 24 23
18 14 6 29 24 18 22 26 33 38 61 66 65 62 66 50 38 42 39 45 46 45 52 23 24 26 32 35 35 38 39 44 42 41 45 48 44 37 33 30 27 25 21
11 10 8 27 16 10 20 31 37 37 40 50 62 66 72 69 61 52 51 49 56 53 53 42 38 32 33 37 37 40 42 49 45 45 44 47 50 44 37 33 29 26 22
12 11 7 3 19 4 9 21 27 35 37 38 43 57 65 76 77 77 71 67 60 51 61 54 39 46 36 28 33 38 46 45 49 50 49 47 51 49 43 36 32 28 24
9 12 20 24 25 15 17 19 14 23 28 36 44 47 49 53 55 53 52 50 53 57 57 40 38 32 33 35 42 40 45 51 58 59 50 50 51 52 47 41 35 31 28
8 12 7 15 20 21 25 27 28 27 22 28 32 37 45 48 48 48 49 51 53 55 57 45 36 35 37 43 41 39 41 46 44 46 49 51 52 54 51 45 39 34 31
10 4 3 9 18 19 23 24 22 14 22 23 26 30 34 31 37 43 44 49 51 53 54 51 41 34 38 34 33 50 47 38 41 40 47 47 51 54 53 48 43 36 34
18 13 13 13 10 14 21 24 20 20 21 23 24 28 28 31 32 32 37 42 45 46 48 51 52 45 37 37 37 42 38 38 36 40 45 48 46 54 56 53 49 40 38
26 26 27 30 28 22 23 23 19 21 22 21 24 25 25 24 30 37 39 36 36 37 39 41 43 43 36 35 41 38 34 35 35 30 43 47 55 53 58 60 55 49 44
15 17 18 18 21 20 28 37 33 31 25 26 26 24 24 25 33 35 34 31 41 39 35 34 35 36 37 36 39 36 26 30 29 31 35 43 43 54 60 64 64 61 52
22 19 16 20 17 15 31 34 38 41 35 25 27 28 30 31 30 28 32 28 25 30 39 47 44 43 46 41 45 36 39 41 32 28 36 41 49 44 56 67 69 68 60
25 25 21 19 21 19 29 35 39 44 42 31 30 31 33 31 28 27 29 28 23 23 25 25 27 27 30 34 40 42 41 39 39 39 29 43 39 52 46 50 56 65 68
27 26 25 23 23 23 30 36 34 29 26 31 33 35 35 36 35 42 36 31 28 24 31 31 23 23 22 25 25 27 30 32 30 35 42 40 42 44 52 57 55 54 55
33 29 26 27 27 26 32 39 34 28 23 26 27 30 33 38 42 47 48 39 37 32 31 38 41 42 45 44 41 42 34 32 36 35 32 37 41 58 66 72 52 56 62
32 32 32 30 31 31 30 35 36 29 26 27 27 29 31 33 36 39 47 53 45 39 37 40 34 36 43 39 37 43 42 38 38 40 34 37 34 38 39 37 52 54 50
Wind_Direction_850mb
220 224 221 219 236 219 237 227 225 250 251 263 274 270 268 261 269 230 280 307 302 273 311 315 316 262 233 242 242 246 259 278 282 286 296 301 304 307 307 308 307 301 297
223 220 223 227 228 228 233 241 247 247 258 262 268 262 259 248 237 228 268 300 313 283 293 300 295 281 242 231 230 244 254 267 269 281 291 304 316 318 317 306 297 291 289
219 214 230 234 234 233 231 237 253 258 255 258 250 261 258 242 237 239 239 264 294 315 314 289 290 284 244 227 228 226 227 229 245 266 295 315 326 328 317 309 302 296 297
214 242 221 235 243 242 241 237 245 257 254 251 256 255 252 241 240 245 245 232 255 281 305 299 295 274 235 206 202 200 209 224 240 259 290 312 324 331 332 316 304 303 305
219 228 230 237 243 242 246 243 243 249 260 264 266 234 239 241 243 248 245 241 238 227 263 274 281 250 224 216 204 204 212 230 244 264 287 302 314 326 335 326 308 306 309
216 228 231 234 235 241 243 240 244 242 249 261 273 287 212 240 249 245 243 244 238 238 227 263 265 227 260 248 225 212 223 240 254 274 290 301 312 328 332 328 317 313 312
217 235 230 228 236 228 222 213 238 249 246 255 261 265 271 258 243 238 249 243 238 235 228 230 230 240 270 264 242 228 232 240 250 269 292 305 308 322 331 332 322 312 312
225 236 242 230 221 218 227 230 239 262 250 234 279 298 281 251 234 241 229 237 233 230 233 231 233 225 229 268 260 253 250 248 254 267 287 299 304 308 321 327 318 310 317
229 227 228 225 226 230 245 264 262 262 254 251 281 249 272 266 232 233 251 234 226 233 226 232 236 231 232 221 258 266 258 254 256 262 272 283 296 309 313 319 316 309 319
212 217 222 230 234 232 253 261 287 263 262 246 227 230 252 261 286 285 244 249 228 224 220 224 240 242 234 238 232 243 263 260 262 263 266 269 279 296 304 312 313 310 316
210 218 220 224 244 261 261 246 255 257 249 243 202 214 249 256 265 260 267 258 237 231 231 242 224 238 258 249 239 244 248 260 263 263 263 265 269 281 295 304 307 304 311
233 208 219 236 238 244 257 269 260 247 235 228 218 221 220 244 261 250 256 265 264 262 238 214 232 240 241 255 258 234 250 262 263 263 261 260 262 269 281 293 299 295 304
162 140 179 233 225 210 247 251 265 266 247 242 248 231 250 229 247 257 265 277 277 270 277 235 237 241 252 250 247 258 253 256 262 263 263 258 259 261 269 280 292 286 292
183 183 260 352 340 280 246 244 249 257 262 254 244 247 261 247 259 253 260 265 273 274 278 276 263 252 251 243 246 246 250 258 256 261 264 260 254 255 257 267 280 277 279
163 179 155 52 306 270 278 270 264 255 250 255 254 252 253 253 264 263 265 253 251 264 261 259 282 252 248 227 246 247 253 257 261 260 259 260 252 251 249 257 269 269 266
214 210 248 251 269 270 267 249 275 290 278 270 262 261 259 260 262 264 262 260 250 249 258 252 257 256 260 245 236 262 273 272 266 263 257 256 251 246 244 249 259 264 257
63 46 297 233 258 281 272 252 241 239 276 283 287 268 263 264 265 264 262 259 256 252 253 256 259 267 256 259 259 268 265 269 268 270 258 250 247 241 240 243 253 261 254
334 272 172 274 272 282 288 294 288 267 273 278 277 282 278 281 278 273 269 266 260 254 254 252 253 253 262 267 271 280 284 265 267 259 263 254 242 238 239 240 245 256 251
279 265 276 238 260 282 272 284 295 286 278 280 281 282 282 275 282 277 279 273 268 263 257 256 255 258 254 264 270 285 293 283 275 254 254 253 246 239 237 236 239 247 247
336 321 297 261 250 243 256 280 275 286 281 282 281 285 284 279 279 278 276 274 274 270 266 260 255 255 255 264 273 278 280 278 276 267 262 261 250 243 235 234 235 241 242
327 322 310 284 272 270 269 266 267 260 273 276 278 287 287 274 285 298 297 284 269 271 271 272 267 258 254 257 271 267 272 275 268 266 254 256 264 244 234 233 235 237 240
303 296 303 294 294 282 265 273 269 264 263 272 277 279 281 293 300 299 309 306 300 282 273 265 269 266 266 262 265 274 276 277 279 257 257 246 249 264 246 236 239 240 242
300 301 295 292 292 287 276 276 277 266 267 270 270 272 276 272 292 284 289 299 308 303 296 286 274 279 282 273 272 276 277 272 269 269 279 253 254 247 253 251 245 239 243
301 299 291 286 286 282 282 290 289 288 288 279 269 268 270 274 278 274 274 280 286 281 288 290 280 269 261 268 274 279 278 279 284 277 267 263 253 247 248 247 246 254 249
301 294 288 285 280 280 285 288 293 294 295 284 280 274 270 262 263 270 270 278 282 280 272 276 276 274 266 266 270 269 266 270 273 273 277 280 279 274 262 278 231 244 255
294 296 289 280 281 282 280 282 293 296 289 282 279 279 282 280 279 275 272 274 277 277 273 262 271 277 272 263 268 268 269 264 266 271 269 279 278 288 291 277 258 263 253